Location: *
(46.3500°N, 10.9000°E)
Time: 21:56:15
(UTC+00:00)

Explorer 7 - Pass Details

Date: 28 April 2021
Orbit: 484 x 677 km, 50.3° (Epoch: 05 May)

Event Time Altitude Azimuth Distance (km) Brightness Sun altitude
Rises 19:29:57 0° 286° (WNW) 2,636 11.8 -11.2°
Reaches altitude 10° 19:32:09 10° 291° (WNW) 1,775 10.8 -11.5°
Maximum altitude 19:36:06 51° 9° (N) 698 7.5 -12.0°
Enters shadow 19:40:05 11° 85° (E) 1,805 9.0 -12.6°
Drops below altitude 10° 19:40:18 10° 86° (E) 1,888 - -12.6°
Sets 19:42:41 0° 91° (E) 2,823 - -13.0°
